Location: Unspecified
(41.1637°N, 24.2901°E)
Time: 10:46:09
(UTC+02:00)

ISS - Pass Details

Date: 08 May 2026
Orbit: 414 x 424 km, 51.6° (Epoch: 12 May)

Event Time Altitude Azimuth Distance (km) Brightness Sun altitude
Exits shadow 01:01:30 11° 36° (NE) 1,449 -0.3 -31.0°
Drops below altitude 10° 01:01:39 10° 38° (NE) 1,479 -0.3 -31.0°
Sets 01:04:37 0° 66° (ENE) 2,363 0.5 -30.9°
